Weather Roundup
Issued by NWS Springfield, MO

Home | Current Version | Previous Version | Text Only | Print | Product List | Glossary On
Versions: 1 2 3 4 5 6 7 8 9 10 11 12 13 14 15 16 17 18 19 20 21 22 23 24 25 26 27 28 29 30 31 32 33 34 35 36 37 38 39 40 41 42 43 44 45 46 47 48 49 50
000
NZUS99 KSGF 231657
HRRSGF

HOURLY WEATHER
NATIONAL WEATHER SERVICE SPRINGFIELD MO
1200 PM CDT TUE MAY 23 2017

......SGF CWA......

CITY           SKY/WX    TMP DP  RH WIND       PRES   REMARKS
SPRINGFIELD    PTSUNNY   65  56  72 NW9       29.82F
JOPLIN         CLOUDY    62  57  83 NW12      29.88S
WEST PLAINS    CLOUDY    67  57  70 NW7       29.80F
ROLLA          CLOUDY    62  59  90 NW8       29.78F
BRANSON        PTSUNNY   68  57  68 W8        29.83S

......SURROUNDING SGF CWA......

CITY           SKY/WX    TMP DP  RH WIND       PRES   REMARKS
CHANUTE        CLOUDY    66  50  56 N13       29.90F
PARSONS        PTSUNNY   63  51  65 N14G21    29.92S
COFFEYVILLE    CLOUDY    63  52  67 NW17      29.91S
EMPORIA        CLOUDY    63  46  54 NW15      29.91F
ROGERS AR      PTSUNNY   64  55  72 NW9       29.86S
HARRISON AR    MOSUNNY   69  57  65 NW10      29.82F

......KANSAS AND MISSOURI......

CITY           SKY/WX    TMP DP  RH WIND       PRES   REMARKS
KANSAS CTY INT PTSUNNY   64  49  57 NW17      29.87F
SEDALIA        CLOUDY    59  56  89 NW13G22   29.85R
ST JOSEPH      MOSUNNY   63  49  60 N13       29.87F
ST LOUIS       CLOUDY    67  58  72 N9        29.77S
WICHITA        MOSUNNY   66  46  48 NW20G28   29.95F
TOPEKA         PTSUNNY   64  49  57 N12       29.89F
OLATHE         MOSUNNY   63  47  55 N17       29.87F

......TENNESSEE......

CITY           SKY/WX    TMP DP  RH WIND       PRES   REMARKS
MEMPHIS        NOT AVBL
NASHVILLE      PTSUNNY   75  57  53 CALM      29.76F

......ARKANSAS.......

CITY           SKY/WX    TMP DP  RH WIND       PRES   REMARKS
FAYETTEVILLE   PTSUNNY   68  57  68 VRB6      29.84F
FT SMITH       MOSUNNY   73  55  53 N13       29.84F
LITTLE ROCK    PTSUNNY   75  60  59 NW10      29.79F

......OKLAHOMA.......

CITY           SKY/WX    TMP DP  RH WIND       PRES   REMARKS
TULSA          CLOUDY    65  53  65 N20       29.90R
PONCA CITY     CLOUDY    62  49  62 N14       29.96S
MCALESTER      CLOUDY    69  58  67 N14       29.91R
OKLAHOMA CITY  CLOUDY    59  51  75 N20       29.96S

......IOWA............

CITY           SKY/WX    TMP DP  RH WIND       PRES   REMARKS
DES MOINES     NOT AVBL
QUAD CITIES      N/A    N/A N/A N/A MISG      29.76F

......ILLINOIS........

CITY           SKY/WX    TMP DP  RH WIND       PRES   REMARKS
QUINCY         RAIN      58  56  93 W5        29.79S FOG
CHICAGO        CLOUDY    61  53  75 SW8       29.78F




USA.gov is the U.S. government's official web portal to all federal, state and local government web resources and services.